User: anonymous   Login
Location: Most
(50.5133°N, 13.6207°E)
Time: 05:07:02
(UTC+01:00)
Language:

ZACube-1 - Orbit

View from above orbital plane
View from above orbital plane
View from above satellite
View from above satellite

Ground track
Ground track

The orbit data is extracted from the following two-line orbital elements,

1 39417U 13066B   21339.85690956  .00000677  00000-0  90144-4 0  9998
2 39417  97.6130 315.4964 0057538 320.5235  39.1793 14.81705849434451
Epoch (UTC): 05 December 2021 20:33:56
Eccentricity: 0.0057538
inclination: 97.6130°
perigee height: 583 km
apogee height: 664 km
right ascension of ascending node: 315.4964°
argument of perigee: 320.5235°
revolutions per day: 14.81705849
mean anomaly at epoch: 39.1793°
orbit number at epoch: 43445

The dashed part of the orbit path shows where the satellite is in the earth's shadow,  

DLR